Location: Bush Observatory
(40.2653°N, 94.3194°W)
Time: 10:11:32
(UTC-05:00)

Iridium 13 - Visible Passes

Search period start: 24 April 2017 00:00
Search period end: 04 May 2017 00:00
Orbit: 776 x 779 km, 86.4° (Epoch: 22 April)

Date Brightness Start Highest point End Pass type
(mag) Time Alt. Az. Time Alt. Az. Time Alt. Az.
24 Apr 6.6 23:04:16 10° N 23:07:45 35° NE 23:07:45 35° NE visible
25 Apr 7.7 00:45:52 10° NW 00:48:14 18° WNW 00:48:14 18° WNW visible
25 Apr 7.0 22:31:17 10° NNE 22:34:30 23° ENE 22:34:30 23° ENE visible
26 Apr 7.1 00:11:34 10° NNW 00:14:58 31° NW 00:14:58 31° NW visible
26 Apr 7.5 21:59:08 10° NE 22:01:15 13° ENE 22:01:15 13° ENE visible
26 Apr 6.2 23:37:43 10° N 23:41:43 51° NNW 23:41:43 51° NNW visible
27 Apr 5.9 23:04:11 10° N 23:08:29 55° NE 23:08:29 55° NE visible
28 Apr 8.0 00:46:53 10° NW 00:48:58 14° WNW 00:48:58 14° WNW visible
28 Apr 6.4 22:30:58 10° NNE 22:35:15 34° ENE 22:35:15 34° ENE visible
29 Apr 7.3 00:12:01 10° NNW 00:15:44 25° WNW 00:15:44 25° WNW visible
29 Apr 7.0 21:58:13 10° NNE 22:01:58 20° ENE 22:02:02 20° ENE visible
29 Apr 6.3 23:37:56 10° NNW 23:42:31 45° WNW 23:42:31 45° WNW visible
30 Apr 7.6 21:27:16 10° ENE 21:28:02 10° ENE 21:28:48 10° E visible
30 Apr 5.5 23:04:13 10° N 23:09:18 84° NW 23:09:18 84° NW visible
01 May 5.7 22:30:48 10° N 22:35:54 51° E 22:36:06 50° E visible
02 May 7.6 00:12:44 10° NW 00:16:08 18° W 00:16:35 18° W visible
02 May 6.5 21:57:43 10° NNE 22:02:11 28° E 22:02:55 27° E visible
02 May 6.8 23:38:16 10° NNW 23:42:52 32° W 23:43:24 31° W visible
03 May 7.2 21:25:18 10° NE 21:28:21 15° ENE 21:29:44 14° E visible
03 May 5.8 23:04:21 10° N 23:09:29 60° W 23:10:14 54° SW visible
